アトラス-アフリカーノ彗星

C/2019 F1 ( ATLAS-Africano )

English version
Home page
Updated on February 5, 2022

---------------------------------------------------------------------

・ プロフィール

発見日 2019年3月28日、29日
発見光度 18.3等、18.4等
発見者 Asteroid Terrestrial-Impact Last Alert System (ATLAS) search program, B. M. Africano (Mount Lemmon Survey)

・ 写真集

・ 軌道要素

Epoch 2022 Jan. 21.0 TT = JDT 2459600.5
T 2021 June 22.95585 TT                                 Rudenko
q   3.5959472            (2000.0)            P               Q
z  -0.0010332      Peri.  251.15570     +0.09445321     +0.85667071
 +/-0.0000007      Node    38.71700     -0.27665846     +0.51194156
e   1.0037155      Incl.   54.17548     -0.95631516     -0.06349127
From 1379 observations 2019 Feb. 8-2022 Jan. 27, mean residual 0".4.

・ 星図

・ 光度変化

        m1 = 8.0 + 5 logΔ + 7.0 log r(t + 150)

---------------------------------------------------------------------

軌道要素はM.P.E.C. 2022-C56に掲載されたものです。
星図はステラナビゲータ Ver.10 (アストロアーツ) で作成したものです。
光度グラフはComet for Windowsで作成したものです。

---------------------------------------------------------------------

Copyright(C) Seiichi Yoshida (comet@aerith.net). All rights reserved.